QTR60L OTHH-EGCC

Flight info

Callsign QTR60L
Flight time N/A
Altitude 34000
Route ULIKA M430 KSA T503 ASVUL/N0493F360 T503 OVANO L768 FIRAS R655 KTN R785 NIKAS L619 VESAR UN135 IMR UN127 RIKSO DCT TALAS/N0477F380 DCT MAVAR DCT ULPIN DCT MONFA DCT SOTOV DCT XEBIX DCT USUDO DCT LIRSU DCT SPI DCT DENUT L610 LAM UN57 WELIN T420 ELVOS
Aircraft B77W/H-SDE1E2E3FGHIJ2J3J4J5M1RWXY/LB1D1

Departure

Time N/A
Airport Hamad International Airport (OTHH)

Arrival

Time 2026-05-05 12:59
Airport Manchester Airport (EGCC)
Time Latitude Longitude Altitude Speed Heading
2026-05-05 11:13 46.19568 12.29339 38010 ft 459 kts 312°
2026-05-05 11:13 46.21832 12.26127 38004 ft 460 kts 312°
2026-05-05 11:14 46.26233 12.19872 38002 ft 461 kts 312°
2026-05-05 11:14 46.30810 12.13351 37997 ft 463 kts 312°
2026-05-05 11:15 46.35286 12.06958 37995 ft 462 kts 312°
2026-05-05 11:15 46.39869 12.00397 38003 ft 463 kts 312°
2026-05-05 11:16 46.44386 11.93914 37987 ft 463 kts 312°
2026-05-05 11:16 46.48950 11.87347 37998 ft 465 kts 311°
2026-05-05 11:17 46.53423 11.80895 37999 ft 464 kts 311°
2026-05-05 11:17 46.57968 11.74322 38001 ft 464 kts 311°
2026-05-05 11:18 46.62434 11.67850 38013 ft 463 kts 312°
2026-05-05 11:18 46.67006 11.61204 38021 ft 465 kts 311°
2026-05-05 11:19 46.71532 11.54611 38012 ft 467 kts 311°
2026-05-05 11:19 46.76036 11.48033 38015 ft 464 kts 311°
2026-05-05 11:20 46.80596 11.41355 38012 ft 468 kts 311°
2026-05-05 11:20 46.85112 11.34727 38019 ft 465 kts 311°
2026-05-05 11:21 46.89590 11.28135 38008 ft 466 kts 311°
2026-05-05 11:21 46.94160 11.21394 38015 ft 466 kts 311°
2026-05-05 11:22 46.98345 11.14880 38019 ft 465 kts 309°
2026-05-05 11:22 47.02573 11.08136 38013 ft 464 kts 309°
2026-05-05 11:23 47.07008 11.01062 38003 ft 467 kts 309°
2026-05-05 11:23 47.11334 10.94156 38014 ft 465 kts 309°
2026-05-05 11:24 47.15713 10.87150 38004 ft 467 kts 309°
2026-05-05 11:24 47.20084 10.80142 37994 ft 467 kts 309°
2026-05-05 11:25 47.24317 10.73340 37953 ft 469 kts 309°
2026-05-05 11:25 47.28760 10.66182 37982 ft 469 kts 309°
2026-05-05 11:26 47.33149 10.59091 37962 ft 470 kts 309°
2026-05-05 11:26 47.37504 10.52039 37960 ft 470 kts 309°
2026-05-05 11:27 47.42075 10.45561 37958 ft 476 kts 318°
2026-05-05 11:27 47.47174 10.39708 37921 ft 477 kts 319°
2026-05-05 11:28 47.52333 10.33787 37921 ft 479 kts 318°
2026-05-05 11:28 47.57588 10.27731 37918 ft 478 kts 318°
2026-05-05 11:29 47.62796 10.21707 37908 ft 478 kts 318°
2026-05-05 11:29 47.68011 10.15658 37887 ft 480 kts 318°
2026-05-05 11:30 47.73156 10.09674 37886 ft 478 kts 318°
2026-05-05 11:30 47.78345 10.03620 37871 ft 480 kts 318°
2026-05-05 11:31 47.83566 9.97513 37866 ft 481 kts 318°
2026-05-05 11:31 47.88799 9.91376 37881 ft 482 kts 318°
2026-05-05 11:32 47.94017 9.85241 37882 ft 483 kts 318°
2026-05-05 11:32 47.99188 9.79145 37889 ft 484 kts 318°
2026-05-05 11:33 48.04361 9.73031 37874 ft 482 kts 318°
2026-05-05 11:33 48.09473 9.66820 37866 ft 483 kts 314°
2026-05-05 11:34 48.14190 9.60055 37862 ft 481 kts 313°
2026-05-05 11:34 48.18977 9.53111 37865 ft 482 kts 312°
2026-05-05 11:35 48.23747 9.46176 37844 ft 481 kts 313°
2026-05-05 11:35 48.28458 9.39308 37854 ft 484 kts 313°
2026-05-05 11:36 48.33020 9.32642 37869 ft 483 kts 312°
2026-05-05 11:36 48.37805 9.25632 37867 ft 482 kts 312°
2026-05-05 11:37 48.42569 9.18632 37864 ft 485 kts 312°
2026-05-05 11:37 48.47313 9.11644 37861 ft 486 kts 312°
2026-05-05 11:38 48.52109 9.04560 37851 ft 486 kts 312°
2026-05-05 11:38 48.56892 8.97475 37853 ft 486 kts 312°
2026-05-05 11:39 48.61669 8.90378 37855 ft 487 kts 312°
2026-05-05 11:39 48.66437 8.83275 37858 ft 486 kts 312°
2026-05-05 11:40 48.71236 8.76105 37858 ft 488 kts 312°
2026-05-05 11:40 48.76018 8.68941 37867 ft 489 kts 312°
2026-05-05 11:41 48.80812 8.61741 37866 ft 487 kts 312°
2026-05-05 11:41 48.85572 8.54566 37854 ft 491 kts 312°
2026-05-05 11:42 48.90386 8.47295 37847 ft 489 kts 312°
2026-05-05 11:42 48.95140 8.40091 37858 ft 490 kts 312°
2026-05-05 11:43 48.99860 8.32919 37859 ft 489 kts 311°
2026-05-05 11:43 49.04527 8.25807 37854 ft 490 kts 311°
2026-05-05 11:44 49.09323 8.18477 37854 ft 488 kts 311°
2026-05-05 11:44 49.13895 8.11470 37845 ft 490 kts 311°
2026-05-05 11:45 49.18702 8.04081 37847 ft 490 kts 311°
2026-05-05 11:45 49.23405 7.96832 37851 ft 490 kts 311°
2026-05-05 11:46 49.28212 7.89401 37854 ft 491 kts 311°
2026-05-05 11:46 49.32769 7.82338 37855 ft 491 kts 311°
2026-05-05 11:47 49.37561 7.74886 37863 ft 491 kts 311°
2026-05-05 11:47 49.42260 7.67559 37863 ft 490 kts 311°
2026-05-05 11:48 49.49378 7.56420 37863 ft 490 kts 311°
2026-05-05 11:48 49.54090 7.49018 37872 ft 490 kts 311°
2026-05-05 11:49 49.58772 7.41642 37868 ft 490 kts 311°
2026-05-05 11:49 49.63423 7.34293 37885 ft 492 kts 310°
2026-05-05 11:50 49.68125 7.26842 37877 ft 490 kts 310°
2026-05-05 11:50 49.72787 7.19432 37881 ft 491 kts 310°
2026-05-05 11:51 49.77414 7.12058 37869 ft 491 kts 310°
2026-05-05 11:51 49.82114 7.04543 37881 ft 491 kts 310°
2026-05-05 11:52 49.86769 6.97081 37863 ft 489 kts 310°
2026-05-05 11:52 49.91446 6.89558 37872 ft 490 kts 310°
2026-05-05 11:53 49.96112 6.82034 37866 ft 489 kts 310°
2026-05-05 11:53 50.00770 6.74497 37857 ft 490 kts 310°
2026-05-05 11:54 50.05407 6.66972 37857 ft 490 kts 310°
2026-05-05 11:54 50.10066 6.59391 37859 ft 489 kts 310°
2026-05-05 11:55 50.14646 6.51914 37850 ft 489 kts 310°
2026-05-05 11:55 50.19036 6.44037 37843 ft 483 kts 301°
2026-05-05 11:56 50.22605 6.35370 37842 ft 480 kts 299°
2026-05-05 11:57 50.29557 6.18039 37852 ft 482 kts 298°
2026-05-05 11:57 50.33057 6.09238 37849 ft 481 kts 298°
2026-05-05 11:58 50.36510 6.00520 37832 ft 481 kts 298°
2026-05-05 11:58 50.39956 5.91783 37842 ft 481 kts 298°
2026-05-05 11:59 50.43370 5.83095 37846 ft 481 kts 298°
2026-05-05 11:59 50.46767 5.74425 37856 ft 478 kts 298°
2026-05-05 12:00 50.50183 5.65670 37864 ft 478 kts 298°
2026-05-05 12:00 50.53533 5.56983 37862 ft 478 kts 297°
2026-05-05 12:01 50.56896 5.48110 37868 ft 477 kts 297°
2026-05-05 12:02 50.63347 5.31022 37873 ft 477 kts 297°
2026-05-05 12:02 50.66631 5.22283 37881 ft 477 kts 296°
2026-05-05 12:03 50.69941 5.13445 37888 ft 477 kts 296°
2026-05-05 12:03 50.73111 5.04955 37894 ft 476 kts 296°
2026-05-05 12:04 50.76423 4.96054 37897 ft 475 kts 296°
2026-05-05 12:04 50.79510 4.87730 37900 ft 475 kts 297°
2026-05-05 12:05 50.82861 4.78663 37903 ft 475 kts 297°
2026-05-05 12:05 50.86004 4.70130 37906 ft 475 kts 297°
2026-05-05 12:06 50.89280 4.61205 37913 ft 475 kts 297°
2026-05-05 12:06 50.92438 4.52574 37912 ft 475 kts 297°
2026-05-05 12:07 50.94732 4.46285 37912 ft 474 kts 297°
2026-05-05 12:07 50.97896 4.37587 37918 ft 475 kts 297°
2026-05-05 12:08 51.01162 4.28576 37920 ft 476 kts 296°
2026-05-05 12:08 51.04409 4.19586 37919 ft 475 kts 296°
2026-05-05 12:09 51.07647 4.10590 37909 ft 475 kts 296°
2026-05-05 12:09 51.10764 4.01898 37897 ft 474 kts 296°
2026-05-05 12:10 51.15197 3.89485 37897 ft 474 kts 296°
2026-05-05 12:11 51.18409 3.80454 37901 ft 474 kts 296°
2026-05-05 12:11 51.21619 3.71399 37910 ft 474 kts 296°
2026-05-05 12:12 51.24014 3.61908 37912 ft 468 kts 281°
2026-05-05 12:12 51.25424 3.51834 37914 ft 468 kts 279°
2026-05-05 12:13 51.26761 3.41882 37915 ft 468 kts 279°
2026-05-05 12:13 51.28070 3.31881 37916 ft 468 kts 278°
2026-05-05 12:14 51.29368 3.21796 37919 ft 468 kts 278°
2026-05-05 12:14 51.30651 3.11733 37922 ft 468 kts 279°
2026-05-05 12:15 51.31935 3.01593 37929 ft 468 kts 279°
2026-05-05 12:15 51.33208 2.91449 37929 ft 469 kts 279°
2026-05-05 12:16 51.34476 2.81277 37924 ft 468 kts 279°
2026-05-05 12:16 51.35736 2.71096 37932 ft 468 kts 279°
2026-05-05 12:17 51.36994 2.60891 37936 ft 468 kts 279°
2026-05-05 12:17 51.38238 2.50726 37934 ft 469 kts 279°
2026-05-05 12:18 51.39473 2.40555 37937 ft 470 kts 279°
2026-05-05 12:18 51.40699 2.30377 37945 ft 470 kts 278°
2026-05-05 12:19 51.41933 2.20175 37949 ft 469 kts 279°
2026-05-05 12:19 51.43182 2.09950 37956 ft 469 kts 279°
2026-05-05 12:20 51.44422 1.99710 37952 ft 469 kts 279°
2026-05-05 12:20 51.45635 1.89461 37957 ft 469 kts 279°
2026-05-05 12:21 51.46831 1.79188 37956 ft 469 kts 279°
2026-05-05 12:21 51.48017 1.68892 37956 ft 470 kts 279°
2026-05-05 12:22 51.49193 1.58605 37953 ft 471 kts 279°
2026-05-05 12:22 51.50365 1.48271 37958 ft 471 kts 279°
2026-05-05 12:23 51.51524 1.37971 37961 ft 470 kts 279°
2026-05-05 12:23 51.52641 1.27963 37958 ft 470 kts 278°
2026-05-05 12:24 51.53791 1.17571 37942 ft 470 kts 278°
2026-05-05 12:24 51.54926 1.07233 37951 ft 471 kts 278°
2026-05-05 12:25 51.56050 0.96901 37953 ft 472 kts 278°
2026-05-05 12:25 51.57167 0.86537 37946 ft 472 kts 278°
2026-05-05 12:26 51.58253 0.76389 37953 ft 472 kts 278°
2026-05-05 12:26 51.59344 0.66097 37946 ft 472 kts 278°
2026-05-05 12:27 51.60421 0.55848 37951 ft 472 kts 278°
2026-05-05 12:27 51.61500 0.45481 37952 ft 473 kts 278°
2026-05-05 12:28 51.62555 0.35274 38094 ft 471 kts 279°
2026-05-05 12:28 51.63266 0.30307 37979 ft 476 kts 286°
2026-05-05 12:28 51.64468 0.25399 37953 ft 475 kts 295°
2026-05-05 12:29 51.68164 0.16684 37953 ft 479 kts 310°
2026-05-05 12:29 51.72567 0.08862 37945 ft 478 kts 311°
2026-05-05 12:30 51.77000 0.01002 37951 ft 478 kts 311°
2026-05-05 12:30 51.81428 -0.06875 37950 ft 479 kts 310°
2026-05-05 12:31 51.85833 -0.14735 37947 ft 479 kts 310°
2026-05-05 12:31 51.90269 -0.22676 37961 ft 478 kts 311°
2026-05-05 12:32 51.94633 -0.30512 37955 ft 478 kts 311°
2026-05-05 12:32 51.99020 -0.38415 37957 ft 478 kts 311°
2026-05-05 12:33 52.03377 -0.46287 37535 ft 473 kts 311°
2026-05-05 12:33 52.05565 -0.50251 36809 ft 479 kts 311°
2026-05-05 12:33 52.07733 -0.54185 36034 ft 486 kts 311°
2026-05-05 12:34 52.09965 -0.58243 35215 ft 492 kts 311°
2026-05-05 12:34 52.12159 -0.62235 34247 ft 498 kts 310°
2026-05-05 12:34 52.14407 -0.66333 33234 ft 500 kts 309°
2026-05-05 12:34 52.16715 -0.70548 32295 ft 500 kts 309°
2026-05-05 12:35 52.19011 -0.74746 31368 ft 500 kts 309°
2026-05-05 12:35 52.21272 -0.78887 30462 ft 499 kts 309°
2026-05-05 12:35 52.23526 -0.82895 29926 ft 491 kts 314°
2026-05-05 12:35 52.26105 -0.86445 29439 ft 484 kts 322°
2026-05-05 12:36 52.28871 -0.89369 28898 ft 477 kts 327°
2026-05-05 12:36 52.31594 -0.92081 28345 ft 471 kts 327°
2026-05-05 12:36 52.34322 -0.94790 27787 ft 464 kts 327°
2026-05-05 12:36 52.37018 -0.97473 27234 ft 458 kts 327°
2026-05-05 12:37 52.39724 -1.00172 26669 ft 452 kts 327°
2026-05-05 12:37 52.42375 -1.02820 26114 ft 446 kts 327°
2026-05-05 12:37 52.44981 -1.05428 25553 ft 440 kts 327°
2026-05-05 12:37 52.47572 -1.08026 24992 ft 434 kts 326°
2026-05-05 12:38 52.50116 -1.10580 24446 ft 430 kts 327°
2026-05-05 12:38 52.52653 -1.13133 23888 ft 441 kts 326°
2026-05-05 12:38 52.55245 -1.15745 23312 ft 439 kts 326°
2026-05-05 12:38 52.57808 -1.18328 22741 ft 433 kts 326°
2026-05-05 12:39 52.60348 -1.20891 22164 ft 427 kts 326°
2026-05-05 12:39 52.62859 -1.23428 21602 ft 421 kts 326°
2026-05-05 12:39 52.65344 -1.25942 21030 ft 416 kts 327°
2026-05-05 12:39 52.67780 -1.28411 20459 ft 411 kts 326°
2026-05-05 12:40 52.70203 -1.30871 19892 ft 406 kts 326°
2026-05-05 12:40 52.72547 -1.33254 19407 ft 401 kts 326°
2026-05-05 12:40 52.74927 -1.35680 18958 ft 405 kts 326°
2026-05-05 12:40 52.77307 -1.38107 18481 ft 401 kts 327°
2026-05-05 12:41 52.79671 -1.40522 18009 ft 397 kts 327°
2026-05-05 12:41 52.82009 -1.42912 17544 ft 393 kts 327°
2026-05-05 12:41 52.84290 -1.45248 17083 ft 390 kts 327°
2026-05-05 12:41 52.86600 -1.47616 16623 ft 387 kts 327°
2026-05-05 12:42 52.88861 -1.49937 16164 ft 384 kts 327°
2026-05-05 12:42 52.91096 -1.52234 15712 ft 381 kts 327°
2026-05-05 12:42 52.93255 -1.54456 15276 ft 378 kts 327°
2026-05-05 12:42 52.95436 -1.56702 14837 ft 375 kts 327°
2026-05-05 12:43 52.97620 -1.58955 14396 ft 372 kts 327°
2026-05-05 12:43 52.99802 -1.61208 13959 ft 369 kts 327°
2026-05-05 12:43 53.01891 -1.63369 13532 ft 367 kts 328°
2026-05-05 12:43 53.03915 -1.65472 13126 ft 365 kts 325°
2026-05-05 12:44 53.05942 -1.68216 12681 ft 362 kts 314°
2026-05-05 12:44 53.07605 -1.71286 12265 ft 360 kts 310°
2026-05-05 12:44 53.09210 -1.74379 11841 ft 358 kts 310°
2026-05-05 12:44 53.10796 -1.77450 11429 ft 356 kts 310°
2026-05-05 12:45 53.12414 -1.80590 11000 ft 350 kts 310°
2026-05-05 12:45 53.13958 -1.83591 10597 ft 343 kts 310°
2026-05-05 12:45 53.15480 -1.86550 10171 ft 334 kts 310°
2026-05-05 12:45 53.16979 -1.89471 9799 ft 324 kts 310°
2026-05-05 12:46 53.18415 -1.92270 9428 ft 314 kts 311°
2026-05-05 12:46 53.19810 -1.94993 9057 ft 306 kts 311°
2026-05-05 12:46 53.21175 -1.97662 8697 ft 298 kts 311°
2026-05-05 12:46 53.22502 -2.00257 8346 ft 291 kts 311°
2026-05-05 12:47 53.23807 -2.02813 7986 ft 284 kts 311°
2026-05-05 12:47 53.24970 -2.05335 7686 ft 271 kts 297°
2026-05-05 12:47 53.25402 -2.08268 7644 ft 258 kts 269°
2026-05-05 12:47 53.24947 -2.11076 7616 ft 245 kts 244°
2026-05-05 12:48 53.24107 -2.13512 7595 ft 237 kts 240°
2026-05-05 12:48 53.23269 -2.15836 7326 ft 236 kts 240°
2026-05-05 12:48 53.22416 -2.18201 7032 ft 236 kts 240°
2026-05-05 12:48 53.21575 -2.20531 6756 ft 235 kts 240°
2026-05-05 12:49 53.20728 -2.22869 6473 ft 235 kts 240°
2026-05-05 12:49 53.19888 -2.25182 6214 ft 233 kts 240°
2026-05-05 12:49 53.19051 -2.27478 5946 ft 233 kts 240°
2026-05-05 12:49 53.18201 -2.29796 5683 ft 232 kts 240°
2026-05-05 12:50 53.17365 -2.32076 5411 ft 231 kts 240°
2026-05-05 12:50 53.16539 -2.34318 5255 ft 224 kts 240°
2026-05-05 12:50 53.15745 -2.36456 5221 ft 211 kts 240°
2026-05-05 12:50 53.14987 -2.38483 5180 ft 199 kts 240°
2026-05-05 12:51 53.14265 -2.40402 4961 ft 197 kts 240°
2026-05-05 12:51 53.13540 -2.42317 4713 ft 197 kts 240°
2026-05-05 12:51 53.12853 -2.44283 4444 ft 194 kts 255°
2026-05-05 12:51 53.12823 -2.46450 4122 ft 187 kts 294°
2026-05-05 12:52 53.13559 -2.48106 4007 ft 180 kts 319°
2026-05-05 12:52 53.14493 -2.49529 3992 ft 180 kts 320°
2026-05-05 12:52 53.15429 -2.50942 3970 ft 179 kts 320°
2026-05-05 12:52 53.16351 -2.52342 3720 ft 180 kts 320°
2026-05-05 12:53 53.17272 -2.53743 3484 ft 179 kts 320°
2026-05-05 12:53 53.18187 -2.55141 3260 ft 178 kts 320°
2026-05-05 12:53 53.19098 -2.56507 3041 ft 175 kts 327°
2026-05-05 12:53 53.20227 -2.57110 2990 ft 175 kts
2026-05-05 12:54 53.21905 -2.54470 2999 ft 182 kts 62°
2026-05-05 12:54 53.22589 -2.52729 2998 ft 179 kts 48°
2026-05-05 12:54 53.23369 -2.51184 2989 ft 167 kts 47°
2026-05-05 12:55 53.24095 -2.49735 2992 ft 161 kts 47°
2026-05-05 12:55 53.24812 -2.48278 2820 ft 162 kts 48°
2026-05-05 12:55 53.25522 -2.46824 2610 ft 159 kts 48°
2026-05-05 12:55 53.26212 -2.45413 2407 ft 157 kts 48°
2026-05-05 12:56 53.26899 -2.44006 2199 ft 156 kts 47°
2026-05-05 12:56 53.27588 -2.42595 1993 ft 158 kts 48°
2026-05-05 12:56 53.28269 -2.41194 1784 ft 156 kts 47°
2026-05-05 12:56 53.28937 -2.39823 1568 ft 148 kts 47°
2026-05-05 12:57 53.29568 -2.38526 1380 ft 140 kts 47°
2026-05-05 12:57 53.30185 -2.37261 1187 ft 140 kts 47°
2026-05-05 12:57 53.30807 -2.36033 1010 ft 138 kts 44°
2026-05-05 12:57 53.31392 -2.34735 781 ft 139 kts 50°
2026-05-05 12:58 53.32018 -2.33491 583 ft 142 kts 47°
2026-05-05 12:58 53.32622 -2.32240 404 ft 141 kts 48°
2026-05-05 12:58 53.33237 -2.30984 233 ft 140 kts 48°
2026-05-05 12:58 53.33800 -2.29820 205 ft 110 kts 51°
2026-05-05 12:59 53.34161 -2.29072 205 ft 57 kts 51°
2026-05-05 12:59 53.34302 -2.28783 211 ft 17 kts 49°
2026-05-05 12:59 53.34381 -2.28657 216 ft 13 kts 38°
2026-05-05 13:00 53.34526 -2.28526 223 ft 11 kts 22°
2026-05-05 13:00 53.34603 -2.28476 226 ft 11 kts 21°
2026-05-05 13:01 53.34803 -2.28214 234 ft 13 kts 51°
2026-05-05 13:01 53.34864 -2.28091 236 ft 14 kts 50°
2026-05-05 13:01 53.34905 -2.28005 238 ft 5 kts 50°
2026-05-05 13:01 53.34935 -2.27977 239 ft 5 kts
2026-05-05 13:02 53.34976 -2.27992 240 ft 6 kts 327°
2026-05-05 13:02 53.35018 -2.28048 241 ft 9 kts 321°
2026-05-05 13:02 53.35081 -2.28130 240 ft 12 kts 322°
2026-05-05 13:02 53.35162 -2.28198 241 ft 13 kts 356°
2026-05-05 13:03 53.35252 -2.28189 241 ft 12 kts
2026-05-05 13:03 53.35339 -2.28175 241 ft 12 kts
2026-05-05 13:03 53.35424 -2.28157 242 ft 12 kts 11°
2026-05-05 13:03 53.35501 -2.28116 243 ft 11 kts 27°
2026-05-05 13:04 53.35556 -2.28038 245 ft 10 kts 48°
2026-05-05 13:04 53.35610 -2.27936 245 ft 13 kts 45°
2026-05-05 13:04 53.35699 -2.27883 245 ft 15 kts
2026-05-05 13:04 53.35778 -2.27870 245 ft 8 kts
2026-05-05 13:05 53.35844 -2.27858 245 ft 10 kts
2026-05-05 13:05 53.35930 -2.27851 245 ft 13 kts 354°
2026-05-05 13:05 53.36017 -2.27928 244 ft 15 kts 322°
2026-05-05 13:05 53.36101 -2.28046 242 ft 16 kts 319°
2026-05-05 13:06 53.36189 -2.28191 237 ft 15 kts 314°
2026-05-05 13:06 53.36256 -2.28308 230 ft 16 kts 314°
2026-05-05 13:06 53.36326 -2.28428 225 ft 11 kts 319°
2026-05-05 13:06 53.36402 -2.28445 222 ft 13 kts 33°
2026-05-05 13:07 53.36446 -2.28385 222 ft 6 kts 20°
2026-05-05 13:07 53.36492 -2.28414 220 ft 6 kts 316°
2026-05-05 13:07 53.36512 -2.28446 220 ft 4 kts 315°
2026-05-05 13:07 53.36521 -2.28462 220 ft 0 kts 316°